Starlink 30492

operational
NORAD ID: 57921 Int'l Des: 2023-147 Owner: SPXS Country: US Constellation: starlink
LEOCIRCULAR

About Starlink 30492

Description loading...

Live Position

Loading 3D Globe...

Upcoming Passes

Altitude History

Altitude vs Time

uPlot chart will show altitude changes over time

Two-Line Element Set

1 57921U 23147J 25261.15881043 -.00000030 00000-0 12835-4 0 9994
2 57921 43.0004 183.6425 0001010 273.7185 86.3542 15.02529291110636
Epoch: Sep 18, 2025 • Age: 15 hours

Current Status

Altitude 564.7 km
Velocity 7.58 km/s
Sub-Earth Point -24.34°S, 104.08°E
Launch Date Sep 24, 2023
Age 1.9 years
Type internet

Technical Details

Classification Payload
Mass 730.00 kg
Dry Mass 700.00 kg
Total Mass 730.00 kg
Length 0.30 m
Diameter 4.10 m
Span 29.00 m
Shape Box + pan
Manufacturer SPXS
Bus Type Starlink V2M
Phase Status In Orbit
Owner/State SPXS/US

Large Constellations

Loading constellations...